| time (UTC) | temp C | wind direction | speed KPH | gust KPH | rain 1hr cm | rain 24hr cm | rain mn cm | humidity % | barometer mb |
| 20260510022718 | 16 | 192 | 8.0 | 11.3 | 0.00 | 0.05 | 0.05 | 91 | 1006.2 |
| 20260510022213 | 16 | 180 | 6.4 | 11.3 | 0.03 | 0.05 | 0.05 | 91 | 1006.2 |
| 20260510021710 | 16 | 187 | 8.0 | 11.3 | 0.03 | 0.05 | 0.05 | 91 | 1006.5 |
| 20260510021206 | 16 | 180 | 8.0 | 12.9 | 0.03 | 0.05 | 0.05 | 92 | 1006.5 |
| 20260510020651 | 16 | 179 | 6.4 | 12.9 | 0.03 | 0.05 | 0.05 | 92 | 1006.6 |
| 20260510020138 | 16 | 191 | 8.0 | 11.3 | 0.03 | 0.05 | 0.05 | 92 | 1006.7 |
| 20260510015624 | 16 | 189 | 6.4 | 11.3 | 0.03 | 0.05 | 0.05 | 91 | 1006.7 |
| 20260510015120 | 16 | 193 | 6.4 | 11.3 | 0.03 | 0.05 | 0.05 | 91 | 1006.9 |
| 20260510014615 | 16 | 202 | 9.7 | 9.7 | 0.03 | 0.03 | 0.03 | 90 | 1007.0 |
| 20260510014333 | 16 | 167 | 9.7 | 9.7 | 0.03 | 0.03 | 0.03 | 90 | 1007.3 |
| 20260510013606 | 16 | 180 | 8.0 | 9.7 | 0.03 | 0.03 | 0.03 | 89 | 1007.3 |
| 20260510013328 | 16 | 176 | 6.4 | 9.7 | 0.03 | 0.03 | 0.03 | 89 | 1007.4 |
| 20260510012559 | 17 | 166 | 6.4 | 9.7 | 0.03 | 0.03 | 0.03 | 90 | 1007.4 |
| 20260510012043 | 16 | 180 | 6.4 | 9.7 | 0.00 | 0.03 | 0.03 | 89 | 1007.5 |
| 20260510011804 | 17 | 164 | 6.4 | 9.7 | 0.00 | 0.03 | 0.03 | 88 | 1007.6 |
| 20260510011038 | 17 | 172 | 8.0 | 9.7 | 0.00 | 0.00 | 0.00 | 87 | 1007.7 |
| 20260510010739 | 17 | 168 | 8.0 | 9.7 | 0.00 | 0.00 | 0.00 | 85 | 1007.7 |
| 20260510010017 | 17 | 177 | 6.4 | 9.7 | 0.00 | 0.00 | 0.00 | 85 | 1007.6 |
| 20260510005736 | 17 | 162 | 6.4 | 9.7 | 0.00 | 0.00 | 0.00 | 84 | 1007.5 |
| 20260510004950 | 18 | 180 | 8.0 | 9.7 | 0.00 | 0.00 | 0.00 | 84 | 1007.7 |
| 20260510004445 | 17 | 177 | 6.4 | 9.7 | 0.00 | 0.00 | 0.00 | 83 | 1007.7 |
| 20260510003941 | 17 | 178 | 8.0 | 9.7 | 0.00 | 0.00 | 0.00 | 86 | 1007.7 |
| 20260510003417 | 17 | 175 | 8.0 | 9.7 | 0.00 | 0.00 | 0.00 | 88 | 1007.7 |
| 20260510002912 | 16 | 181 | 6.4 | 9.7 | 0.00 | 0.00 | 0.00 | 89 | 1007.8 |
| 20260510002408 | 16 | 167 | 8.0 | 9.7 | 0.00 | 0.00 | 0.00 | 89 | 1007.8 |
| 20260510001843 | 16 | 182 | 8.0 | 9.7 | 0.00 | 0.00 | 0.00 | 89 | 1007.9 |
| 20260510001603 | 16 | 180 | 6.4 | 9.7 | 0.00 | 0.00 | 0.00 | 89 | 1007.8 |
| 20260510000836 | 16 | 176 | 6.4 | 9.7 | 0.00 | 0.00 | 0.00 | 89 | 1007.8 |
| 20260510000330 | 16 | 178 | 6.4 | 9.7 | 0.00 | 0.00 | 0.00 | 89 | 1007.6 |
| 20260509235829 | 16 | 201 | 8.0 | 9.7 | 0.00 | 0.00 | 0.00 | 89 | 1007.4 |
| 20260509235329 | 16 | 183 | 6.4 | 9.7 | 0.00 | 0.00 | 0.00 | 89 | 1007.3 |
| 20260509234829 | 16 | 177 | 8.0 | 9.7 | 0.00 | 0.00 | 0.00 | 90 | 1007.3 |
| 20260509234556 | 16 | 178 | 6.4 | 9.7 | 0.00 | 0.00 | 0.00 | 90 | 1007.4 |
| 20260509233821 | 15 | 171 | 6.4 | 9.7 | 0.00 | 0.00 | 0.00 | 90 | 1007.4 |
| 20260509233538 | 15 | 166 | 8.0 | 9.7 | 0.00 | 0.00 | 0.00 | 89 | 1007.3 |
| 20260509232812 | 15 | 173 | 8.0 | 9.7 | 0.00 | 0.00 | 0.00 | 88 | 1007.1 |
| 20260509232308 | 15 | 165 | 8.0 | 11.3 | 0.00 | 0.00 | 0.00 | 87 | 1007.4 |
| 20260509232022 | 16 | 162 | 6.4 | 11.3 | 0.00 | 0.00 | 0.00 | 85 | 1007.5 |
| 20260509231300 | 16 | 161 | 8.0 | 9.7 | 0.00 | 0.00 | 0.00 | 82 | 1007.3 |
| 20260509230759 | 17 | 169 | 6.4 | 9.7 | 0.00 | 0.00 | 0.00 | 80 | 1007.0 |
| 20260509230243 | 17 | 163 | 8.0 | 9.7 | 0.00 | 0.00 | 0.00 | 77 | 1007.0 |
| 20260509225738 | 18 | 175 | 6.4 | 9.7 | 0.00 | 0.00 | 0.00 | 77 | 1007.0 |
| 20260509225234 | 18 | 161 | 8.0 | 9.7 | 0.00 | 0.00 | 0.00 | 75 | 1007.0 |
| 20260509224958 | 19 | 180 | 6.4 | 9.7 | 0.00 | 0.00 | 0.00 | 75 | 1006.7 |
| 20260509224227 | 20 | 189 | 6.4 | 8.0 | 0.00 | 0.00 | 0.00 | 74 | 1006.8 |
| 20260509224201 | 18 | 169 | 6.4 | 9.7 | 0.00 | 0.00 | 0.00 | 76 | 1006.7 |
| 20260509223157 | 18 | 166 | 6.4 | 9.7 | 0.00 | 0.00 | 0.00 | 78 | 1006.7 |
| 20260509222658 | 18 | 169 | 6.4 | 9.7 | 0.00 | 0.00 | 0.00 | 79 | 1006.8 |
| 20260509222157 | 17 | 173 | 8.0 | 9.7 | 0.00 | 0.00 | 0.00 | 85 | 1006.7 |
| 20260509221655 | 16 | 180 | 8.0 | 9.7 | 0.00 | 0.00 | 0.00 | 92 | 1006.6 |
| 20260509221635 | 16 | 191 | 8.0 | 9.7 | 0.00 | 0.00 | 0.00 | 96 | 1006.5 |
| 20260509220647 | 15 | 179 | 8.0 | 9.7 | 0.00 | 0.00 | 0.00 | 97 | 1006.5 |
| 20260509220142 | 14 | 180 | 6.4 | 9.7 | 0.00 | 0.00 | 0.00 | 97 | 1006.7 |
| 20260509215628 | 14 | 175 | 8.0 | 9.7 | 0.00 | 0.00 | 0.00 | 97 | 1006.6 |
| 20260509215123 | 14 | 183 | 6.4 | 8.0 | 0.00 | 0.00 | 0.00 | 97 | 1006.4 |
| 20260509214621 | 14 | 171 | 8.0 | 8.0 | 0.00 | 0.00 | 0.00 | 98 | 1006.5 |
| 20260509214336 | 14 | 178 | 8.0 | 8.0 | 0.00 | 0.00 | 0.00 | 98 | 1006.5 |
| 20260509213611 | 14 | 178 | 6.4 | 8.0 | 0.00 | 0.00 | 0.00 | 98 | 1006.5 |
| 20260509213108 | 14 | 178 | 6.4 | 8.0 | 0.00 | 0.00 | 0.00 | 98 | 1006.2 |
| 20260509212603 | 13 | 177 | 8.0 | 9.7 | 0.00 | 0.00 | 0.00 | 98 | 1006.2 |
| 20260509212318 | 13 | 172 | 8.0 | 9.7 | 0.00 | 0.00 | 0.00 | 98 | 1006.2 |
| 20260509211545 | 13 | 178 | 6.4 | 8.0 | 0.00 | 0.00 | 0.00 | 98 | 1006.1 |
| 20260509211041 | 13 | 181 | 6.4 | 9.7 | 0.00 | 0.00 | 0.00 | 98 | 1006.2 |
| 20260509210517 | 13 | 169 | 8.0 | 9.7 | 0.00 | 0.00 | 0.00 | 98 | 1006.0 |
| 20260509210237 | 13 | 174 | 8.0 | 9.7 | 0.00 | 0.00 | 0.00 | 98 | 1005.7 |
| 20260509205509 | 13 | 172 | 8.0 | 9.7 | 0.00 | 0.00 | 0.00 | 98 | 1005.7 |
| 20260509204945 | 13 | 172 | 6.4 | 9.7 | 0.00 | 0.00 | 0.00 | 98 | 1005.8 |
| 20260509204440 | 13 | 173 | 6.4 | 9.7 | 0.00 | 0.00 | 0.00 | 98 | 1005.7 |
| 20260509203916 | 12 | 181 | 6.4 | 9.7 | 0.00 | 0.00 | 0.00 | 98 | 1005.7 |
| 20260509203412 | 12 | 177 | 6.4 | 9.7 | 0.00 | 0.00 | 0.00 | 98 | 1005.4 |
| 20260509202907 | 12 | 179 | 6.4 | 9.7 | 0.00 | 0.00 | 0.00 | 98 | 1005.4 |
| 20260509202353 | 12 | 180 | 8.0 | 9.7 | 0.00 | 0.00 | 0.00 | 98 | 1005.5 |
| 20260509202113 | 12 | 179 | 6.4 | 9.7 | 0.00 | 0.00 | 0.00 | 98 | 1005.4 |
| 20260509201345 | 12 | 169 | 8.0 | 9.7 | 0.00 | 0.00 | 0.00 | 98 | 1005.3 |
| 20260509200840 | 12 | 180 | 8.0 | 9.7 | 0.00 | 0.00 | 0.00 | 98 | 1005.3 |
| 20260509200337 | 12 | 184 | 8.0 | 9.7 | 0.00 | 0.00 | 0.00 | 98 | 1005.3 |
| 20260509200051 | 12 | 187 | 6.4 | 9.7 | 0.00 | 0.00 | 0.00 | 98 | 1005.1 |
| 20260509195325 | 12 | 180 | 6.4 | 9.7 | 0.00 | 0.00 | 0.00 | 98 | 1005.3 |
| 20260509194814 | 12 | 183 | 6.4 | 9.7 | 0.00 | 0.00 | 0.00 | 98 | 1005.1 |
| 20260509194311 | 12 | 173 | 8.0 | 9.7 | 0.00 | 0.00 | 0.00 | 98 | 1005.2 |
| 20260509193756 | 12 | 178 | 6.4 | 9.7 | 0.00 | 0.00 | 0.00 | 98 | 1005.1 |
| 20260509193251 | 12 | 173 | 8.0 | 9.7 | 0.00 | 0.00 | 0.00 | 98 | 1005.0 |
| 20260509192752 | 12 | 171 | 6.4 | 8.0 | 0.00 | 0.00 | 0.00 | 98 | 1005.1 |
| 20260509192252 | 13 | 170 | 8.0 | 8.0 | 0.00 | 0.00 | 0.00 | 98 | 1005.0 |
| 20260509191749 | 13 | 170 | 8.0 | 8.0 | 0.00 | 0.00 | 0.00 | 98 | 1004.9 |
| 20260509191245 | 13 | 177 | 8.0 | 8.0 | 0.00 | 0.00 | 0.00 | 98 | 1004.9 |
| 20260509190741 | 12 | 183 | 4.8 | 8.0 | 0.00 | 0.00 | 0.00 | 98 | 1004.8 |
| 20260509190238 | 12 | 180 | 6.4 | 8.0 | 0.00 | 0.00 | 0.00 | 98 | 1004.8 |
| 20260509185938 | 12 | 177 | 6.4 | 8.0 | 0.00 | 0.00 | 0.00 | 98 | 1004.7 |
| 20260509185357 | 12 | 177 | 6.4 | 8.0 | 0.00 | 0.00 | 0.00 | 98 | 1004.8 |
| 20260509184201 | 12 | 173 | 8.0 | 9.7 | 0.00 | 0.00 | 0.00 | 98 | 1004.6 |
| 20260509183658 | 12 | 185 | 6.4 | 9.7 | 0.00 | 0.00 | 0.00 | 98 | 1004.5 |
| 20260509183153 | 12 | 196 | 8.0 | 9.7 | 0.00 | 0.00 | 0.00 | 98 | 1004.5 |
| 20260509182650 | 12 | 190 | 8.0 | 9.7 | 0.00 | 0.00 | 0.00 | 98 | 1004.5 |
| 20260509182152 | 12 | 188 | 8.0 | 9.7 | 0.00 | 0.00 | 0.00 | 98 | 1004.5 |
| 20260509181640 | 12 | 172 | 6.4 | 9.7 | 0.00 | 0.00 | 0.00 | 98 | 1004.4 |
| 20260509181136 | 12 | 172 | 8.0 | 9.7 | 0.00 | 0.00 | 0.00 | 98 | 1004.5 |
| 20260509180621 | 12 | 173 | 8.0 | 9.7 | 0.00 | 0.00 | 0.00 | 98 | 1004.3 |
| 20260509180119 | 12 | 182 | 8.0 | 9.7 | 0.00 | 0.00 | 0.00 | 98 | 1004.4 |
| 20260509175620 | 12 | 186 | 8.0 | 9.7 | 0.00 | 0.00 | 0.00 | 98 | 1004.4 |
| 20260509175120 | 12 | 177 | 6.4 | 9.7 | 0.00 | 0.00 | 0.00 | 98 | 1004.4 |
| 20260509174814 | 12 | 179 | 8.0 | 9.7 | 0.00 | 0.00 | 0.00 | 98 | 1004.4 |
| 20260509173607 | 11 | 174 | 8.0 | 9.7 | 0.00 | 0.00 | 0.00 | 98 | 1004.2 |
| 20260509173103 | 11 | 170 | 8.0 | 9.7 | 0.00 | 0.00 | 0.00 | 97 | 1004.0 |
| 20260509172549 | 11 | 170 | 8.0 | 9.7 | 0.00 | 0.00 | 0.00 | 97 | 1004.1 |
| 20260509172307 | 11 | 176 | 6.4 | 9.7 | 0.00 | 0.00 | 0.00 | 97 | 1004.2 |
| 20260509171542 | 12 | 176 | 6.4 | 9.7 | 0.00 | 0.00 | 0.00 | 97 | 1004.1 |
| 20260509171036 | 12 | 174 | 6.4 | 9.7 | 0.00 | 0.00 | 0.00 | 97 | 1004.0 |
| 20260509170522 | 12 | 171 | 8.0 | 9.7 | 0.00 | 0.00 | 0.00 | 97 | 1004.1 |
| 20260509170019 | 12 | 168 | 8.0 | 9.7 | 0.00 | 0.00 | 0.00 | 98 | 1004.0 |
| 20260509165730 | 12 | 173 | 8.0 | 9.7 | 0.00 | 0.00 | 0.00 | 97 | 1004.2 |
| 20260509165011 | 11 | 166 | 8.0 | 9.7 | 0.00 | 0.00 | 0.00 | 97 | 1003.8 |
| 20260509164506 | 11 | 176 | 8.0 | 9.7 | 0.00 | 0.00 | 0.00 | 97 | 1004.1 |
| 20260509164205 | 11 | 180 | 6.4 | 9.7 | 0.00 | 0.00 | 0.00 | 97 | 1003.9 |
| 20260509163449 | 11 | 180 | 8.0 | 9.7 | 0.00 | 0.00 | 0.00 | 97 | 1004.0 |
| 20260509162914 | 11 | 171 | 8.0 | 9.7 | 0.00 | 0.00 | 0.00 | 97 | 1004.1 |
| 20260509162409 | 11 | 175 | 8.0 | 9.7 | 0.00 | 0.00 | 0.00 | 97 | 1004.1 |
| 20260509161855 | 11 | 179 | 6.4 | 9.7 | 0.00 | 0.00 | 0.00 | 97 | 1004.2 |
| 20260509161612 | 11 | 171 | 6.4 | 9.7 | 0.00 | 0.00 | 0.00 | 97 | 1004.2 |
| 20260509160826 | 12 | 187 | 8.0 | 9.7 | 0.00 | 0.00 | 0.00 | 97 | 1004.1 |
| 20260509160323 | 12 | 176 | 8.0 | 9.7 | 0.00 | 0.00 | 0.00 | 97 | 1004.1 |
| 20260509155818 | 12 | 169 | 6.4 | 9.7 | 0.00 | 0.00 | 0.00 | 97 | 1003.9 |
| 20260509155315 | 11 | 168 | 8.0 | 9.7 | 0.00 | 0.00 | 0.00 | 97 | 1004.0 |
| 20260509154811 | 12 | 171 | 8.0 | 9.7 | 0.00 | 0.00 | 0.00 | 97 | 1004.2 |
| 20260509154306 | 12 | 166 | 8.0 | 9.7 | 0.00 | 0.00 | 0.00 | 97 | 1004.2 |
| 20260509153802 | 12 | 172 | 8.0 | 9.7 | 0.00 | 0.00 | 0.00 | 97 | 1004.2 |
| 20260509153258 | 11 | 170 | 8.0 | 9.7 | 0.00 | 0.00 | 0.00 | 97 | 1004.2 |
| 20260509152754 | 11 | 174 | 6.4 | 9.7 | 0.00 | 0.00 | 0.00 | 97 | 1004.2 |
| 20260509152246 | 11 | 180 | 8.0 | 9.7 | 0.00 | 0.00 | 0.00 | 97 | 1004.3 |
| 20260509151745 | 11 | 178 | 8.0 | 9.7 | 0.00 | 0.00 | 0.00 | 96 | 1004.4 |
| 20260509151241 | 11 | 185 | 8.0 | 9.7 | 0.00 | 0.00 | 0.00 | 96 | 1004.4 |
| 20260509150716 | 11 | 192 | 8.0 | 9.7 | 0.00 | 0.00 | 0.00 | 96 | 1004.6 |
| 20260509150215 | 11 | 169 | 9.7 | 9.7 | 0.00 | 0.00 | 0.00 | 96 | 1004.4 |
| 20260509150204 | 11 | 176 | 8.0 | 9.7 | 0.00 | 0.00 | 0.00 | 96 | 1004.5 |
| 20260509145215 | 11 | 180 | 8.0 | 9.7 | 0.00 | 0.00 | 0.00 | 96 | 1004.4 |
| 20260509144711 | 11 | 185 | 8.0 | 9.7 | 0.00 | 0.00 | 0.00 | 96 | 1004.6 |
| 20260509144206 | 11 | 188 | 6.4 | 9.7 | 0.00 | 0.00 | 0.00 | 96 | 1004.5 |
| 20260509143653 | 11 | 187 | 8.0 | 9.7 | 0.00 | 0.00 | 0.00 | 96 | 1004.6 |
| 20260509143414 | 11 | 180 | 8.0 | 9.7 | 0.00 | 0.00 | 0.00 | 96 | 1004.6 |
| 20260509142901 | 11 | 186 | 6.4 | 9.7 | 0.00 | 0.00 | 0.00 | 96 | 1004.6 |
| 20260509142357 | 12 | 180 | 8.0 | 9.7 | 0.00 | 0.00 | 0.00 | 96 | 1004.9 |
| 20260509141635 | 12 | 181 | 6.4 | 8.0 | 0.00 | 0.00 | 0.00 | 96 | 1004.7 |
| 20260509141113 | 11 | 180 | 8.0 | 8.0 | 0.00 | 0.00 | 0.00 | 96 | 1004.6 |
| 20260509140831 | 11 | 179 | 4.8 | 4.8 | 0.00 | 0.00 | 0.00 | 96 | 1004.6 |
| 20260509140108 | 12 | 76 | 0.0 | 3.2 | 0.00 | 0.00 | 0.00 | 96 | 1004.7 |
| 20260509135558 | 12 | 106 | 0.0 | 3.2 | 0.00 | 0.00 | 0.00 | 96 | 1004.9 |
| 20260509135055 | 12 | 124 | 0.0 | 3.2 | 0.00 | 0.00 | 0.00 | 96 | 1005.0 |
| 20260509134551 | 12 | 119 | 0.0 | 3.2 | 0.00 | 0.00 | 0.00 | 96 | 1004.9 |
| 20260509134047 | 11 | 131 | 0.0 | 3.2 | 0.00 | 0.00 | 0.00 | 96 | 1004.9 |
| 20260509133511 | 11 | 132 | 0.0 | 9.7 | 0.00 | 0.00 | 0.00 | 96 | 1004.8 |
| 20260509133007 | 11 | 76 | 0.0 | 9.7 | 0.00 | 0.00 | 0.00 | 96 | 1004.9 |
| 20260509132453 | 11 | 175 | 8.0 | 9.7 | 0.00 | 0.00 | 0.00 | 96 | 1004.8 |
| 20260509131949 | 11 | 178 | 8.0 | 9.7 | 0.00 | 0.00 | 0.00 | 96 | 1004.8 |
| 20260509131445 | 11 | 176 | 8.0 | 9.7 | 0.00 | 0.00 | 0.00 | 96 | 1004.7 |
| 20260509130942 | 12 | 180 | 8.0 | 9.7 | 0.00 | 0.00 | 0.00 | 96 | 1004.6 |
| 20260509130455 | 11 | 180 | 8.0 | 9.7 | 0.00 | 0.00 | 0.00 | 96 | 1004.6 |
| 20260509125942 | 11 | 175 | 8.0 | 9.7 | 0.00 | 0.00 | 0.00 | 96 | 1004.6 |
| 20260509125418 | 11 | 172 | 9.7 | 9.7 | 0.00 | 0.00 | 0.00 | 96 | 1004.7 |
| 20260509124911 | 12 | 174 | 8.0 | 9.7 | 0.00 | 0.00 | 0.00 | 96 | 1004.6 |
| 20260509124359 | 12 | 171 | 9.7 | 9.7 | 0.00 | 0.00 | 0.00 | 96 | 1004.5 |
| 20260509123855 | 12 | 167 | 8.0 | 9.7 | 0.00 | 0.00 | 0.00 | 95 | 1004.6 |
| 20260509123340 | 11 | 173 | 9.7 | 9.7 | 0.00 | 0.00 | 0.00 | 95 | 1004.6 |
| 20260509122837 | 12 | 179 | 8.0 | 9.7 | 0.00 | 0.00 | 0.00 | 95 | 1004.6 |
| 20260509122333 | 12 | 187 | 8.0 | 11.3 | 0.00 | 0.00 | 0.00 | 95 | 1004.8 |
| 20260509121819 | 12 | 180 | 8.0 | 11.3 | 0.00 | 0.00 | 0.00 | 95 | 1004.7 |
| 20260509121310 | 12 | 190 | 8.0 | 11.3 | 0.00 | 0.00 | 0.00 | 95 | 1004.7 |
| 20260509120809 | 12 | 194 | 8.0 | 9.7 | 0.00 | 0.00 | 0.00 | 95 | 1004.5 |
| 20260509120531 | 12 | 193 | 9.7 | 9.7 | 0.00 | 0.00 | 0.00 | 94 | 1004.7 |
| 20260509120224 | 12 | 192 | 9.7 | 9.7 | 0.00 | 0.00 | 0.00 | 94 | 1004.7 |
| 20260509115229 | 12 | 183 | 9.7 | 11.3 | 0.00 | 0.00 | 0.00 | 94 | 1004.6 |
| 20260509114713 | 12 | 182 | 8.0 | 11.3 | 0.00 | 0.00 | 0.00 | 94 | 1004.7 |
| 20260509114209 | 12 | 188 | 9.7 | 9.7 | 0.00 | 0.00 | 0.00 | 94 | 1004.5 |
| 20260509113937 | 12 | 176 | 9.7 | 9.7 | 0.00 | 0.00 | 0.00 | 94 | 1004.5 |
| 20260509113210 | 12 | 188 | 8.0 | 9.7 | 0.00 | 0.00 | 0.00 | 94 | 1004.5 |
| 20260509112710 | 12 | 181 | 8.0 | 9.7 | 0.00 | 0.00 | 0.00 | 94 | 1004.5 |
| 20260509112210 | 12 | 181 | 9.7 | 9.7 | 0.00 | 0.00 | 0.00 | 94 | 1004.7 |
| 20260509111709 | 12 | 190 | 9.7 | 11.3 | 0.00 | 0.00 | 0.00 | 94 | 1004.9 |
| 20260509111155 | 12 | 187 | 8.0 | 11.3 | 0.00 | 0.00 | 0.00 | 93 | 1004.8 |
| 20260509110651 | 12 | 187 | 8.0 | 11.3 | 0.00 | 0.00 | 0.00 | 93 | 1004.7 |
| 20260509110147 | 12 | 190 | 9.7 | 11.3 | 0.00 | 0.00 | 0.00 | 93 | 1004.9 |
| 20260509105633 | 12 | 192 | 9.7 | 11.3 | 0.00 | 0.00 | 0.00 | 92 | 1004.7 |
| 20260509105118 | 12 | 197 | 9.7 | 9.7 | 0.00 | 0.00 | 0.00 | 92 | 1004.7 |
| 20260509104833 | 12 | 191 | 9.7 | 9.7 | 0.00 | 0.00 | 0.00 | 92 | 1004.8 |
| 20260509104109 | 12 | 180 | 8.0 | 9.7 | 0.00 | 0.00 | 0.00 | 92 | 1004.6 |
| 20260509103825 | 12 | 179 | 8.0 | 9.7 | 0.00 | 0.00 | 0.00 | 92 | 1004.8 |
| 20260509103051 | 12 | 168 | 8.0 | 9.7 | 0.00 | 0.00 | 0.00 | 92 | 1004.7 |
| 20260509102813 | 12 | 170 | 8.0 | 9.7 | 0.00 | 0.00 | 0.00 | 92 | 1004.7 |
| 20260509102531 | 12 | 169 | 8.0 | 9.7 | 0.00 | 0.00 | 0.00 | 91 | 1004.6 |
| 20260509101540 | 12 | 165 | 8.0 | 9.7 | 0.00 | 0.00 | 0.00 | 92 | 1004.4 |
| 20260509101036 | 12 | 174 | 8.0 | 9.7 | 0.00 | 0.00 | 0.00 | 91 | 1004.3 |
| 20260509100510 | 12 | 182 | 9.7 | 9.7 | 0.00 | 0.00 | 0.00 | 91 | 1004.4 |
| 20260509100228 | 12 | 194 | 8.0 | 9.7 | 0.00 | 0.00 | 0.00 | 91 | 1004.3 |
| 20260509095504 | 12 | 177 | 6.4 | 9.7 | 0.00 | 0.00 | 0.00 | 90 | 1004.4 |
| 20260509094959 | 13 | 178 | 8.0 | 9.7 | 0.00 | 0.00 | 0.00 | 90 | 1004.2 |
| 20260509094706 | 13 | 184 | 8.0 | 9.7 | 0.00 | 0.00 | 0.00 | 90 | 1004.2 |
| 20260509094203 | 13 | 183 | 8.0 | 11.3 | 0.00 | 0.00 | 0.00 | 90 | 1004.4 |
| 20260509093437 | 13 | 190 | 9.7 | 11.3 | 0.00 | 0.00 | 0.00 | 89 | 1004.5 |
| 20260509092935 | 13 | 179 | 6.4 | 12.9 | 0.00 | 0.00 | 0.00 | 88 | 1004.3 |
| 20260509092436 | 13 | 201 | 9.7 | 12.9 | 0.00 | 0.00 | 0.00 | 88 | 1004.2 |
| 20260509092410 | 13 | 198 | 8.0 | 11.3 | 0.00 | 0.00 | 0.00 | 87 | 1004.2 |
| 20260509091419 | 14 | 178 | 6.4 | 9.7 | 0.00 | 0.00 | 0.00 | 86 | 1004.2 |
| 20260509090915 | 14 | 180 | 6.4 | 9.7 | 0.00 | 0.00 | 0.00 | 85 | 1004.1 |
| 20260509090411 | 14 | 185 | 8.0 | 9.7 | 0.00 | 0.00 | 0.00 | 85 | 1004.1 |
| 20260509085906 | 14 | 187 | 8.0 | 9.7 | 0.00 | 0.00 | 0.00 | 84 | 1004.0 |
| 20260509085403 | 14 | 178 | 6.4 | 9.7 | 0.00 | 0.00 | 0.00 | 83 | 1004.1 |
| 20260509084858 | 14 | 179 | 6.4 | 9.7 | 0.00 | 0.00 | 0.00 | 83 | 1004.0 |
| 20260509084354 | 15 | 172 | 8.0 | 9.7 | 0.00 | 0.00 | 0.00 | 82 | 1003.9 |
| 20260509083849 | 15 | 179 | 6.4 | 9.7 | 0.00 | 0.00 | 0.00 | 82 | 1004.0 |
| 20260509083345 | 15 | 182 | 8.0 | 9.7 | 0.00 | 0.00 | 0.00 | 82 | 1003.9 |
| 20260509082831 | 15 | 178 | 8.0 | 9.7 | 0.00 | 0.00 | 0.00 | 81 | 1003.8 |
| 20260509082327 | 15 | 183 | 8.0 | 9.7 | 0.00 | 0.00 | 0.00 | 80 | 1003.8 |
| 20260509081812 | 15 | 171 | 8.0 | 9.7 | 0.00 | 0.00 | 0.00 | 79 | 1003.6 |
| 20260509081304 | 15 | 178 | 8.0 | 9.7 | 0.00 | 0.00 | 0.00 | 79 | 1003.6 |
| 20260509080804 | 16 | 174 | 8.0 | 9.7 | 0.00 | 0.00 | 0.00 | 78 | 1003.6 |
| 20260509080318 | 16 | 174 | 8.0 | 11.3 | 0.00 | 0.00 | 0.00 | 78 | 1003.6 |
| 20260509075804 | 16 | 176 | 8.0 | 11.3 | 0.00 | 0.00 | 0.00 | 79 | 1003.4 |
| 20260509075515 | 16 | 167 | 8.0 | 11.3 | 0.00 | 0.00 | 0.00 | 78 | 1003.4 |
| 20260509074733 | 16 | 174 | 8.0 | 9.7 | 0.00 | 0.00 | 0.00 | 78 | 1003.3 |
| 20260509074452 | 16 | 172 | 6.4 | 9.7 | 0.00 | 0.00 | 0.00 | 77 | 1003.1 |
| 20260509073733 | 17 | 169 | 6.4 | 9.7 | 0.00 | 0.00 | 0.00 | 77 | 1003.1 |
| 20260509073214 | 17 | 176 | 8.0 | 9.7 | 0.00 | 0.00 | 0.00 | 76 | 1003.0 |
| 20260509072649 | 17 | 163 | 6.4 | 9.7 | 0.00 | 0.00 | 0.00 | 75 | 1003.0 |
| 20260509072148 | 17 | 161 | 8.0 | 9.7 | 0.00 | 0.00 | 0.00 | 74 | 1002.9 |
| 20260509071859 | 17 | 165 | 8.0 | 9.7 | 0.00 | 0.00 | 0.00 | 73 | 1002.9 |
| 20260509071352 | 17 | 162 | 8.0 | 9.7 | 0.00 | 0.00 | 0.00 | 71 | 1002.9 |
| 20260509070613 | 17 | 167 | 9.7 | 9.7 | 0.00 | 0.00 | 0.00 | 67 | 1002.8 |
| 20260509070552 | 17 | 177 | 8.0 | 8.0 | 0.00 | 0.00 | 0.00 | 64 | 1002.8 |
| 20260509065545 | 18 | 179 | 8.0 | 8.0 | 0.00 | 0.00 | 0.00 | 63 | 1002.7 |
| 20260509065039 | 18 | 178 | 6.4 | 9.7 | 0.00 | 0.00 | 0.00 | 63 | 1002.5 |
| 20260509064535 | 18 | 180 | 8.0 | 9.7 | 0.00 | 0.00 | 0.00 | 61 | 1002.6 |
| 20260509064032 | 18 | 168 | 6.4 | 9.7 | 0.00 | 0.00 | 0.00 | 60 | 1002.4 |
| 20260509063749 | 18 | 169 | 6.4 | 9.7 | 0.00 | 0.00 | 0.00 | 58 | 1002.4 |
| 20260509063013 | 19 | 166 | 6.4 | 9.7 | 0.00 | 0.00 | 0.00 | 60 | 1002.5 |
| 20260509062509 | 19 | 171 | 6.4 | 9.7 | 0.00 | 0.00 | 0.00 | 58 | 1002.4 |
| 20260509062005 | 19 | 64 | 1.6 | 9.7 | 0.00 | 0.00 | 0.00 | 56 | 1002.4 |
| 20260509061500 | 19 | 166 | 8.0 | 9.7 | 0.00 | 0.00 | 0.00 | 58 | 1002.3 |
| 20260509061001 | 19 | 169 | 8.0 | 9.7 | 0.00 | 0.00 | 0.00 | 59 | 1002.5 |
| 20260509060501 | 20 | 176 | 8.0 | 9.7 | 0.00 | 0.00 | 0.00 | 58 | 1002.3 |
| 20260509060222 | 20 | 167 | 6.4 | 9.7 | 0.00 | 0.00 | 0.00 | 58 | 1002.4 |
| 20260509055444 | 20 | 172 | 8.0 | 9.7 | 0.00 | 0.00 | 0.00 | 57 | 1002.1 |
| 20260509054939 | 20 | 172 | 6.4 | 9.7 | 0.00 | 0.00 | 0.00 | 56 | 1002.2 |
| 20260509054703 | 20 | 176 | 6.4 | 9.7 | 0.00 | 0.00 | 0.00 | 56 | 1002.4 |
| 20260509053933 | 20 | 174 | 6.4 | 9.7 | 0.00 | 0.00 | 0.00 | 55 | 1002.2 |
| 20260509053418 | 20 | 170 | 8.0 | 9.7 | 0.00 | 0.00 | 0.00 | 56 | 1002.3 |
| 20260509052914 | 20 | 171 | 8.0 | 9.7 | 0.00 | 0.00 | 0.00 | 55 | 1002.0 |
| 20260509052408 | 21 | 173 | 6.4 | 9.7 | 0.00 | 0.00 | 0.00 | 54 | 1002.1 |
| 20260509051904 | 21 | 175 | 6.4 | 9.7 | 0.00 | 0.00 | 0.00 | 54 | 1002.1 |
| 20260509051412 | 21 | 171 | 6.4 | 9.7 | 0.00 | 0.00 | 0.00 | 57 | 1002.1 |
| 20260509050858 | 21 | 178 | 6.4 | 9.7 | 0.00 | 0.00 | 0.00 | 54 | 1002.1 |
| 20260509050359 | 21 | 165 | 8.0 | 9.7 | 0.00 | 0.00 | 0.00 | 53 | 1002.1 |
| 20260509045859 | 21 | 166 | 8.0 | 9.7 | 0.00 | 0.00 | 0.00 | 51 | 1002.0 |
| 20260509045353 | 21 | 171 | 8.0 | 9.7 | 0.00 | 0.00 | 0.00 | 53 | 1001.9 |
| 20260509044850 | 21 | 180 | 6.4 | 11.3 | 0.00 | 0.00 | 0.00 | 54 | 1001.9 |
| 20260509044335 | 21 | 166 | 6.4 | 11.3 | 0.00 | 0.00 | 0.00 | 53 | 1002.1 |
| 20260509043831 | 22 | 199 | 8.0 | 9.7 | 0.00 | 0.00 | 0.00 | 51 | 1002.1 |
| 20260509043328 | 22 | 180 | 6.4 | 9.7 | 0.00 | 0.00 | 0.00 | 52 | 1002.1 |
| 20260509042823 | 22 | 180 | 6.4 | 9.7 | 0.00 | 0.00 | 0.00 | 52 | 1002.1 |
| 20260509042318 | 22 | 164 | 6.4 | 9.7 | 0.00 | 0.00 | 0.00 | 53 | 1002.1 |
| 20260509041815 | 22 | 179 | 6.4 | 9.7 | 0.00 | 0.00 | 0.00 | 52 | 1002.2 |
| 20260509041310 | 22 | 176 | 6.4 | 9.7 | 0.00 | 0.00 | 0.00 | 51 | 1002.2 |
| 20260509040805 | 22 | 174 | 8.0 | 9.7 | 0.00 | 0.00 | 0.00 | 52 | 1002.2 |
| 20260509040302 | 22 | 163 | 6.4 | 12.9 | 0.00 | 0.00 | 0.00 | 51 | 1002.1 |
| 20260509035756 | 22 | 187 | 6.4 | 12.9 | 0.00 | 0.00 | 0.00 | 52 | 1002.2 |
| 20260509035503 | 21 | 170 | 6.4 | 9.7 | 0.00 | 0.00 | 0.00 | 51 | 1002.3 |
| 20260509034739 | 21 | 158 | 8.0 | 9.7 | 0.00 | 0.00 | 0.00 | 54 | 1002.1 |
| 20260509034225 | 21 | 164 | 6.4 | 9.7 | 0.00 | 0.00 | 0.00 | 52 | 1002.3 |
| 20260509033710 | 22 | 159 | 8.0 | 9.7 | 0.00 | 0.00 | 0.00 | 50 | 1002.2 |
| 20260509033207 | 23 | 169 | 6.4 | 9.7 | 0.00 | 0.00 | 0.00 | 50 | 1002.3 |
| 20260509032652 | 22 | 189 | 6.4 | 9.7 | 0.00 | 0.00 | 0.00 | 53 | 1002.2 |
| 20260509032409 | 22 | 210 | 8.0 | 9.7 | 0.00 | 0.00 | 0.00 | 51 | 1002.4 |
| 20260509031644 | 22 | 175 | 6.4 | 9.7 | 0.00 | 0.00 | 0.00 | 52 | 1002.1 |
| 20260509031623 | 22 | 162 | 8.0 | 9.7 | 0.00 | 0.00 | 0.00 | 50 | 1002.3 |
| 20260509030614 | 22 | 179 | 4.8 | 9.7 | 0.00 | 0.00 | 0.00 | 52 | 1002.3 |
| 20260509030111 | 22 | 173 | 6.4 | 9.7 | 0.00 | 0.00 | 0.00 | 52 | 1002.1 |
| 20260509025606 | 21 | 162 | 6.4 | 9.7 | 0.00 | 0.00 | 0.00 | 51 | 1002.2 |
| 20260509025101 | 22 | 174 | 8.0 | 9.7 | 0.00 | 0.00 | 0.00 | 50 | 1002.3 |
| 20260509024557 | 22 | 182 | 3.2 | 9.7 | 0.00 | 0.00 | 0.00 | 50 | 1002.6 |
| 20260509024058 | 22 | 192 | 8.0 | 11.3 | 0.00 | 0.00 | 0.00 | 51 | 1002.4 |
| 20260509023814 | 22 | 167 | 6.4 | 11.3 | 0.00 | 0.00 | 0.00 | 49 | 1002.6 |
| 20260509023045 | 22 | 214 | 8.0 | 11.3 | 0.00 | 0.00 | 0.00 | 47 | 1002.7 |